Regional Weather Roundup
Issued by NWS Northern Indiana

Home | Current Version | Previous Version | Text Only | Print | Product List | Glossary On
Versions: 1 2 3 4 5 6 7 8 9 10 11 12 13 14 15 16 17 18 19 20 21 22 23 24 25 26 27 28 29 30 31 32 33 34 35 36 37 38 39 40 41 42 43 44 45 46 47 48 49 50
000
ASUS43 KIWX 290010
RWRIWX

KIWX WEATHER ROUNDUP
NATIONAL WEATHER SERVICE NORTHERN INDIANA
800 PM EDT SAT MAY 28 2016

NOTE: "FAIR" INDICATES FEW OR NO CLOUDS BELOW 12,000 FEET WITH NO
SIGNIFICANT WEATHER AND/OR OBSTRUCTIONS TO VISIBILITY.

* THESE STATIONS ARE NOT UNDER NWS QUALITY CONTROL. THEY ALSO MAY NOT
  REPORT WEATHER SUCH AS PRECIPITATION OR FOG.

INZ001>027-290100-
NORTHERN INDIANA

CITY           SKY/WX    TMP DP  RH WIND       PRES   REMARKS
GARY*          MOSUNNY   82  70  65 S14       29.92R
VALPARAISO     SUNNY     81  60  48 S15G25    29.94S
6HR MIN TEMP:  77; 6HR MAX TEMP:  83;

MICHIGAN CITY* SUNNY     81  61  50 S8G16     29.94S
LAPORTE*       SUNNY     83  59  44 S12G17    29.95S
6HR MIN TEMP:  76; 6HR MAX TEMP:  85;

KNOX*            N/A     81  50  34 S23         N/A
SOUTH BEND     MOSUNNY   82  59  45 S18       29.96R
6HR MIN TEMP:  78; 6HR MAX TEMP:  84; 6HR PCP: TRACE;

GOSHEN         CLOUDY    76  64  66 S13       29.99R
6HR MIN TEMP:  73; 6HR MAX TEMP:  87; 6HR PCP:  0.16;

MONTICELLO*    SUNNY     80  57  45 S13G21    29.97S
6HR MIN TEMP:  79; 6HR MAX TEMP:  85;

LOGANSPORT*    MOSUNNY   79  63  57 S18G24    30.00S
ROCHESTER*     CLOUDY    81  64  57 S12G20    30.00R
WARSAW*        CLOUDY    73  63  68 S6        30.01R
ANGOLA*          N/A     82  66  57 S10       29.99R
FORT WAYNE     CLOUDY    74  63  68 S15G28    30.03R
6HR MIN TEMP:  74; 6HR MAX TEMP:  88; 6HR PCP: TRACE;

HUNTINGTON*    CLOUDY    76  63  65 S8        30.02R
6HR MIN TEMP:  76; 6HR MAX TEMP:  86;

PERU/GRISSOM   CLOUDY    78  66  65 S17       30.00S
6HR MIN TEMP:  73; 6HR MAX TEMP:  87; 6HR PCP:  0.01;

MARION*        CLOUDY    75  66  75 S13       30.04R HAZE
6HR MIN TEMP:  -1; 6HR MAX TEMP:  86; 6HR PCP:  0.04;


$$
INZ028>050-290100-
CENTRAL INDIANA

CITY           SKY/WX    TMP DP  RH WIND       PRES   REMARKS
LAFAYETTE      MOSUNNY   78  64  61 S12G22    29.97R
6HR MIN TEMP:  78; 6HR MAX TEMP:  83;

KOKOMO*        CLOUDY    79  64  61 S15       30.01S
6HR MIN TEMP:  75; 6HR MAX TEMP:  84;

MUNCIE*        LGT RAIN  75  66  73 S17G23    30.06R
6HR MIN TEMP:  74; 6HR MAX TEMP:  86; 6HR PCP: TRACE;

INDIANAPOLIS   PTSUNNY   76  66  71 S14       30.03R
6HR MIN TEMP:  75; 6HR MAX TEMP:  83; 6HR PCP: TRACE;


$$
MIZ043>046-050>051-056>058-064>065-071>073-077>080-290100-
SOUTHWEST LOWER MICHIGAN

CITY           SKY/WX    TMP DP  RH WIND       PRES   REMARKS
BATTLE CREEK   MOSUNNY   80  61  52 SW10      29.98R
6HR MIN TEMP:  79; 6HR MAX TEMP:  84;

BENTON HARBOR  SUNNY     82  59  45 S12       29.93R
6HR MIN TEMP:  78; 6HR MAX TEMP:  83; 6HR PCP: TRACE;

COLDWATER*     CLOUDY    80  63  56 S7        29.99R
6HR MIN TEMP:  80; 6HR MAX TEMP:  86;

HILLSDALE*     PTCLDY    78  59  51 S9G16     30.02R
6HR MIN TEMP:  78; 6HR MAX TEMP:  85;

HOLLAND        SUNNY     81  63  54 S10       29.94R
6HR MIN TEMP:  79; 6HR MAX TEMP:  83;

GRAND RAPIDS   MOSUNNY   83  59  44 S12       29.95S
6HR MIN TEMP:  81; 6HR MAX TEMP:  86; 6HR PCP: TRACE;

KALAMAZOO      CLOUDY    80  61  52 S10       29.97R
6HR MIN TEMP:  77; 6HR MAX TEMP:  85; 6HR PCP:  0.05;

STURGIS*       LGT RAIN  75  62  62 W13       29.99R
6HR MIN TEMP:  75; 6HR MAX TEMP:  86;

THREE RIVERS*  FAIR      82  59  45 S22G35    29.99R
6HR MIN TEMP:  82; 6HR MAX TEMP:  86;


$$
OHZ001>008-015>018-024>025-290100-
NORTHWEST OHIO

CITY           SKY/WX    TMP DP  RH WIND       PRES   REMARKS
WAUSEON*         N/A     81  81 100 S15       30.03R
DEFIANCE       CLOUDY    80  64  58 S12       30.03R
6HR MIN TEMP:  80; 6HR MAX TEMP:  86; 6HR PCP: TRACE;

FINDLAY        PTCLDY    78  65  63 S10       30.05R
6HR MIN TEMP:  71; 6HR MAX TEMP:  89; 6HR PCP:  0.22;

TOLEDO EXPRESS PTCLDY    79  64  60 S13       30.03R
6HR MIN TEMP:  78; 6HR MAX TEMP:  91;

TOLEDO METCALF PTCLDY    78  63  59 S13       30.04S
6HR MIN TEMP:  75; 6HR MAX TEMP:  90; 6HR PCP: TRACE;

LIMA           CLOUDY    76  68  76 S6        30.07R
6HR MIN TEMP:  69; 6HR MAX TEMP:  85; 6HR PCP:  0.22;


$$
AND FOR LAKE MICHIGAN COASTAL AND OPEN LAKE BUOY OBSERVATIONS

STATION/POSITION TEMP    WIND        PRES    VSBY  WAVE
                 AIR SEA DIR/SP/G                  HT/PER
                 (F)     (DEG/KT/KT) (MB)    (MI)  (FT/S)
CALUMET HARBOR    82     180/ 17/ 22   N/A
MICHIGAN CITY     81     180/ 18/ 21   N/A
BURNS HARBOR      80     190/ 17/ 24 1013.2S
SAINT JOSEPH      75     180/ 10/ 14 1013.9R
SOUTH LAKE BUOY   58 50  140/ 10/ 12 1012.2R         1/ 4
4 MI NW BRIDGMAN  71 61  190/ 10/ 12   N/A           2/ 3
MICHIGAN CITY     71 57  200/ 10/ 12   N/A           2/ 3

$$
&&



USA.gov is the U.S. government's official web portal to all federal, state and local government web resources and services.